7 * 24
多渠道服务支持
STARLINK-37125(NORAD编号68276)是美国SpaceX公司星链(Starlink)星座中的一颗低轨互联网卫星,隶属于SpaceX打造的全球卫星互联网组网计划。 星链项目旨在近地轨道构建覆盖全球的高速低时延通信网络,最终计划部署超4万颗卫星,为全球包括偏远地区提供互联网接入服务,同时兼具军事应用潜力。这颗卫星加入星座后,进一步扩大了星链的全球覆盖范围,助力实现全球无缝互联的目标,也推动了商业航天产业的快速发展。
美国
(US)
| 数据来源 | 国际轨道数据 |
| 星历时间: | 2026-04-14T20:58:38+0800 7小时前 查看轨道信息 |
| 半长轴: | 6705.992km |
| 偏心率: | 0.0001493 |
| 轨道倾角: | 53.158° |
| 近地点辐角 | 67.953° |
| 升交点赤经 | 157.504° |
| 平近点角 | 292.165° |
| 近地点: | 326.853km |
| 远地点: | 328.857km |
| 周期: | 91.087分钟 |
| 每日圈数: | 15.809142 |